FFT2083 KPHX-KSAN

Flight info

Callsign FFT2083
Flight time 1h 16m
Altitude 34000
Route FYRBD1 MOHAK J2 HOGGZ LUCKI1
Aircraft A21N/M-SDE2E3FGHIRWXY/LB1

Departure

Time 2026-04-26 20:06
Airport Phoenix Sky Harbor International Airport (KPHX)

Arrival

Time 2026-04-26 21:23
Airport San Diego International Airport (KSAN)
Time Latitude Longitude Altitude Speed Heading
2026-04-26 19:43 33.43407 -112.00787 1130 ft 0 kts 320°
2026-04-26 19:57 33.43400 -112.00780 1138 ft 4 kts 320°
2026-04-26 19:57 33.43383 -112.00762 1126 ft 4 kts 313°
2026-04-26 19:57 33.43374 -112.00742 1131 ft 4 kts 244°
2026-04-26 19:57 33.43390 -112.00731 1129 ft 4 kts 180°
2026-04-26 19:58 33.43410 -112.00731 1134 ft 0 kts 180°
2026-04-26 20:01 33.43408 -112.00731 1130 ft 2 kts 180°
2026-04-26 20:01 33.43381 -112.00731 1133 ft 6 kts 180°
2026-04-26 20:02 33.43324 -112.00730 1133 ft 10 kts 180°
2026-04-26 20:02 33.43244 -112.00756 1135 ft 15 kts 157°
2026-04-26 20:02 33.43214 -112.00632 1136 ft 18 kts 88°
2026-04-26 20:02 33.43215 -112.00554 1134 ft 10 kts 87°
2026-04-26 20:03 33.43214 -112.00419 1136 ft 14 kts 90°
2026-04-26 20:03 33.43215 -112.00286 1133 ft 18 kts 90°
2026-04-26 20:03 33.43214 -112.00126 1135 ft 21 kts 92°
2026-04-26 20:03 33.43213 -111.99947 1135 ft 23 kts 87°
2026-04-26 20:04 33.43214 -111.99745 1134 ft 26 kts 90°
2026-04-26 20:04 33.43214 -111.99533 1134 ft 24 kts 90°
2026-04-26 20:04 33.43214 -111.99367 1134 ft 14 kts 90°
2026-04-26 20:04 33.43186 -111.99332 1134 ft 8 kts 163°
2026-04-26 20:05 33.43121 -111.99353 1139 ft 10 kts 217°
2026-04-26 20:05 33.43105 -111.99402 1138 ft 2 kts 269°
2026-04-26 20:05 33.43105 -111.99411 1138 ft 0 kts 269°
2026-04-26 20:06 33.43104 -111.99829 1137 ft 100 kts 270°
2026-04-26 20:06 33.43105 -112.00956 1151 ft 165 kts 269°
2026-04-26 20:06 33.43115 -112.02380 1886 ft 174 kts 269°
2026-04-26 20:07 33.43153 -112.03857 2738 ft 184 kts 270°
2026-04-26 20:07 33.43194 -112.05460 3454 ft 203 kts 265°
2026-04-26 20:07 33.42855 -112.07222 4208 ft 231 kts 250°
2026-04-26 20:07 33.42288 -112.09093 5226 ft 249 kts 250°
2026-04-26 20:08 33.41683 -112.11062 6571 ft 253 kts 249°
2026-04-26 20:08 33.41072 -112.13042 7822 ft 259 kts 249°
2026-04-26 20:08 33.40269 -112.14983 9146 ft 262 kts 236°
2026-04-26 20:08 33.38992 -112.16553 10360 ft 271 kts 219°
2026-04-26 20:09 33.37223 -112.17563 11163 ft 294 kts 198°
2026-04-26 20:09 33.35131 -112.17702 12181 ft 313 kts 178°
2026-04-26 20:09 33.32981 -112.17046 13355 ft 323 kts 169°
2026-04-26 20:09 33.30804 -112.16362 14419 ft 321 kts 180°
2026-04-26 20:10 33.28616 -112.16486 15449 ft 312 kts 199°
2026-04-26 20:10 33.26619 -112.17424 16502 ft 306 kts 216°
2026-04-26 20:10 33.24998 -112.19028 17588 ft 302 kts 231°
2026-04-26 20:10 33.23731 -112.21040 18663 ft 302 kts 237°
2026-04-26 20:11 33.22528 -112.23104 19630 ft 304 kts 237°
2026-04-26 20:11 33.21303 -112.25178 20605 ft 306 kts 236°
2026-04-26 20:11 33.20066 -112.27253 21621 ft 307 kts 236°
2026-04-26 20:12 33.17563 -112.31407 23567 ft 310 kts 236°
2026-04-26 20:12 33.16292 -112.33507 24297 ft 313 kts 236°
2026-04-26 20:12 33.15027 -112.35596 25041 ft 315 kts 237°
2026-04-26 20:12 33.13736 -112.37725 25785 ft 317 kts 237°
2026-04-26 20:13 33.12434 -112.39866 26518 ft 319 kts 237°
2026-04-26 20:13 33.11124 -112.42015 27221 ft 322 kts 237°
2026-04-26 20:13 33.09802 -112.44183 27918 ft 324 kts 237°
2026-04-26 20:13 33.08471 -112.46376 28613 ft 326 kts 237°
2026-04-26 20:14 33.07147 -112.48553 29511 ft 322 kts 237°
2026-04-26 20:14 33.05839 -112.50701 30394 ft 317 kts 237°
2026-04-26 20:14 33.04551 -112.52811 31183 ft 313 kts 237°
2026-04-26 20:14 33.03276 -112.54901 31891 ft 310 kts 237°
2026-04-26 20:15 33.02004 -112.56971 32578 ft 308 kts 237°
2026-04-26 20:15 33.00747 -112.59023 33227 ft 306 kts 237°
2026-04-26 20:15 32.99509 -112.61042 33695 ft 305 kts 237°
2026-04-26 20:15 32.98265 -112.63072 33870 ft 303 kts 237°
2026-04-26 20:16 32.97024 -112.65134 33928 ft 312 kts 239°
2026-04-26 20:16 32.95950 -112.67436 33942 ft 323 kts 246°
2026-04-26 20:16 32.95245 -112.69995 33942 ft 330 kts 255°
2026-04-26 20:17 32.94499 -112.75417 33939 ft 332 kts 257°
2026-04-26 20:17 32.93790 -112.80852 33930 ft 332 kts 257°
2026-04-26 20:18 32.93066 -112.86294 33924 ft 333 kts 257°
2026-04-26 20:18 32.92341 -112.91733 33920 ft 333 kts 257°
2026-04-26 20:19 32.91615 -112.97175 33916 ft 332 kts 257°
2026-04-26 20:19 32.90880 -113.02579 33916 ft 332 kts 257°
2026-04-26 20:20 32.90138 -113.08008 33907 ft 332 kts 257°
2026-04-26 20:20 32.89394 -113.13448 33910 ft 332 kts 257°
2026-04-26 20:21 32.88646 -113.18863 33908 ft 332 kts 257°
2026-04-26 20:21 32.87897 -113.24269 33909 ft 332 kts 257°
2026-04-26 20:22 32.87147 -113.29694 33912 ft 332 kts 257°
2026-04-26 20:22 32.86399 -113.35081 33905 ft 332 kts 257°
2026-04-26 20:23 32.85639 -113.40496 33906 ft 332 kts 256°
2026-04-26 20:23 32.84883 -113.45905 33909 ft 331 kts 257°
2026-04-26 20:24 32.84112 -113.51288 33914 ft 330 kts 256°
2026-04-26 20:24 32.83335 -113.56677 33912 ft 330 kts 257°
2026-04-26 20:25 32.82569 -113.62056 33906 ft 330 kts 257°
2026-04-26 20:25 32.81801 -113.67443 33911 ft 330 kts 257°
2026-04-26 20:26 32.81048 -113.72827 33910 ft 330 kts 257°
2026-04-26 20:26 32.80295 -113.78193 33930 ft 327 kts 257°
2026-04-26 20:27 32.79538 -113.83495 33918 ft 327 kts 257°
2026-04-26 20:27 32.78774 -113.88821 33918 ft 327 kts 257°
2026-04-26 20:28 32.78011 -113.94149 33918 ft 327 kts 257°
2026-04-26 20:28 32.77533 -113.99529 33918 ft 330 kts 263°
2026-04-26 20:29 32.77488 -114.04953 33921 ft 324 kts 264°
2026-04-26 20:29 32.77604 -114.10177 33912 ft 308 kts 266°
2026-04-26 20:30 32.77799 -114.15210 33917 ft 303 kts 265°
2026-04-26 20:30 32.77996 -114.20217 33921 ft 303 kts 266°
2026-04-26 20:31 32.78193 -114.25222 33930 ft 303 kts 266°
2026-04-26 20:31 32.78388 -114.30195 33973 ft 303 kts 266°
2026-04-26 20:32 32.78583 -114.35223 33929 ft 305 kts 265°
2026-04-26 20:32 32.79151 -114.40252 33939 ft 314 kts 276°
2026-04-26 20:33 32.80519 -114.45228 33952 ft 318 kts 278°
2026-04-26 20:33 32.81916 -114.50208 33951 ft 318 kts 278°
2026-04-26 20:34 32.83300 -114.55208 33945 ft 318 kts 277°
2026-04-26 20:34 32.84674 -114.60212 33941 ft 318 kts 277°
2026-04-26 20:35 32.86046 -114.65215 33939 ft 318 kts 277°
2026-04-26 20:35 32.87389 -114.70187 33937 ft 316 kts 276°
2026-04-26 20:36 32.87904 -114.75211 33936 ft 300 kts 263°
2026-04-26 20:36 32.87841 -114.77681 33932 ft 297 kts 262°
2026-04-26 20:36 32.87772 -114.80131 33932 ft 295 kts 262°
2026-04-26 20:36 32.87708 -114.82566 33931 ft 293 kts 262°
2026-04-26 20:37 32.87648 -114.85004 33934 ft 299 kts 262°
2026-04-26 20:37 32.87537 -114.89975 33927 ft 301 kts 262°
2026-04-26 20:38 32.87440 -114.94104 33924 ft 301 kts 262°
2026-04-26 20:38 32.87383 -114.96595 33927 ft 300 kts 262°
2026-04-26 20:38 32.87326 -114.99063 33789 ft 296 kts 262°
2026-04-26 20:38 32.87273 -115.01508 33548 ft 296 kts 262°
2026-04-26 20:39 32.87215 -115.03954 33293 ft 297 kts 263°
2026-04-26 20:39 32.87157 -115.06414 33091 ft 297 kts 263°
2026-04-26 20:39 32.87100 -115.08860 32820 ft 296 kts 263°
2026-04-26 20:39 32.87042 -115.11289 32427 ft 291 kts 262°
2026-04-26 20:40 32.86979 -115.13679 31973 ft 287 kts 262°
2026-04-26 20:40 32.86919 -115.16000 31550 ft 282 kts 262°
2026-04-26 20:40 32.86864 -115.18339 31150 ft 277 kts 262°
2026-04-26 20:40 32.86813 -115.20575 30784 ft 272 kts 262°
2026-04-26 20:41 32.86759 -115.22804 30432 ft 266 kts 262°
2026-04-26 20:41 32.86705 -115.24988 30090 ft 261 kts 262°
2026-04-26 20:41 32.86650 -115.27126 29677 ft 257 kts 262°
2026-04-26 20:41 32.86596 -115.29242 29276 ft 256 kts 262°
2026-04-26 20:42 32.86543 -115.31370 28884 ft 256 kts 262°
2026-04-26 20:42 32.86482 -115.33492 28528 ft 256 kts 261°
2026-04-26 20:42 32.86288 -115.35589 28175 ft 255 kts 257°
2026-04-26 20:42 32.85991 -115.37635 27826 ft 255 kts 257°
2026-04-26 20:43 32.85683 -115.39744 27487 ft 255 kts 257°
2026-04-26 20:43 32.85385 -115.41825 27135 ft 255 kts 257°
2026-04-26 20:43 32.85098 -115.43883 26772 ft 255 kts 257°
2026-04-26 20:43 32.84808 -115.45963 26266 ft 259 kts 257°
2026-04-26 20:44 32.84487 -115.48190 25935 ft 281 kts 257°
2026-04-26 20:44 32.84125 -115.50465 25630 ft 276 kts 256°
2026-04-26 20:44 32.83762 -115.52680 25326 ft 269 kts 257°
2026-04-26 20:44 32.83407 -115.54848 25010 ft 263 kts 256°
2026-04-26 20:45 32.83068 -115.56967 24714 ft 259 kts 257°
2026-04-26 20:45 32.82730 -115.59075 24410 ft 260 kts 257°
2026-04-26 20:45 32.82386 -115.61185 24102 ft 260 kts 257°
2026-04-26 20:45 32.82040 -115.63305 23818 ft 261 kts 257°
2026-04-26 20:46 32.81696 -115.65405 23499 ft 263 kts 257°
2026-04-26 20:46 32.81345 -115.67547 23126 ft 264 kts 257°
2026-04-26 20:46 32.80994 -115.69687 22773 ft 264 kts 257°
2026-04-26 20:46 32.80646 -115.71827 22434 ft 263 kts 257°
2026-04-26 20:47 32.80300 -115.73958 22102 ft 262 kts 257°
2026-04-26 20:47 32.80069 -115.75369 21885 ft 262 kts 257°
2026-04-26 20:47 32.79600 -115.78201 21453 ft 261 kts 257°
2026-04-26 20:47 32.79248 -115.80313 21134 ft 260 kts 257°
2026-04-26 20:48 32.78897 -115.82418 20810 ft 259 kts 257°
2026-04-26 20:48 32.78560 -115.84526 20486 ft 259 kts 259°
2026-04-26 20:48 32.78359 -115.86650 20156 ft 259 kts 263°
2026-04-26 20:48 32.78201 -115.88786 19843 ft 259 kts 263°
2026-04-26 20:49 32.78043 -115.90915 19522 ft 258 kts 263°
2026-04-26 20:49 32.77883 -115.93035 19201 ft 257 kts 263°
2026-04-26 20:49 32.77727 -115.95124 18872 ft 257 kts 263°
2026-04-26 20:49 32.77567 -115.97240 18556 ft 258 kts 263°
2026-04-26 20:50 32.77407 -115.99362 18231 ft 258 kts 263°
2026-04-26 20:50 32.77247 -116.01482 17886 ft 257 kts 264°
2026-04-26 20:50 32.77086 -116.03593 17499 ft 256 kts 264°
2026-04-26 20:50 32.76927 -116.05702 17143 ft 255 kts 264°
2026-04-26 20:51 32.76768 -116.07803 16802 ft 255 kts 264°
2026-04-26 20:51 32.76609 -116.09900 16483 ft 254 kts 264°
2026-04-26 20:51 32.76449 -116.11992 16170 ft 255 kts 264°
2026-04-26 20:51 32.76289 -116.14087 15875 ft 254 kts 264°
2026-04-26 20:52 32.76130 -116.16176 15567 ft 254 kts 265°
2026-04-26 20:52 32.75970 -116.18273 15258 ft 254 kts 265°
2026-04-26 20:52 32.75813 -116.20354 14952 ft 253 kts 265°
2026-04-26 20:52 32.75652 -116.22436 14640 ft 253 kts 265°
2026-04-26 20:53 32.75493 -116.24516 14331 ft 252 kts 265°
2026-04-26 20:53 32.75335 -116.26585 14004 ft 252 kts 265°
2026-04-26 20:53 32.75173 -116.28659 13676 ft 251 kts 265°
2026-04-26 20:53 32.75014 -116.30699 13347 ft 251 kts 265°
2026-04-26 20:54 32.74854 -116.32758 13011 ft 250 kts 265°
2026-04-26 20:54 32.74694 -116.34809 12694 ft 249 kts 265°
2026-04-26 20:54 32.74537 -116.36853 12373 ft 248 kts 266°
2026-04-26 20:54 32.74378 -116.38890 12084 ft 247 kts 265°
2026-04-26 20:55 32.74220 -116.40913 11772 ft 246 kts 266°
2026-04-26 20:55 32.74063 -116.42928 11461 ft 244 kts 266°
2026-04-26 20:55 32.73907 -116.44928 11161 ft 243 kts 266°
2026-04-26 20:55 32.73750 -116.46920 10853 ft 241 kts 266°
2026-04-26 20:56 32.73592 -116.48906 10552 ft 240 kts 266°
2026-04-26 20:56 32.73437 -116.50850 10260 ft 238 kts 266°
2026-04-26 20:56 32.73250 -116.52788 9969 ft 235 kts 265°
2026-04-26 20:56 32.73065 -116.54720 9656 ft 235 kts 265°
2026-04-26 20:57 32.72876 -116.56638 9321 ft 232 kts 265°
2026-04-26 20:57 32.72688 -116.58545 9023 ft 234 kts 265°
2026-04-26 20:57 32.72499 -116.60469 8737 ft 235 kts 265°
2026-04-26 20:57 32.72309 -116.62402 8443 ft 236 kts 265°
2026-04-26 20:58 32.72121 -116.64331 8156 ft 237 kts 265°
2026-04-26 20:58 32.71932 -116.66300 7862 ft 245 kts 265°
2026-04-26 20:58 32.71770 -116.68301 7457 ft 241 kts 266°
2026-04-26 20:58 32.71620 -116.70273 7044 ft 240 kts 265°
2026-04-26 20:59 32.71469 -116.72266 6720 ft 242 kts 265°
2026-04-26 20:59 32.71318 -116.74216 6514 ft 232 kts 265°
2026-04-26 20:59 32.71172 -116.76077 6301 ft 222 kts 265°
2026-04-26 20:59 32.71032 -116.77889 5999 ft 216 kts 265°
2026-04-26 21:00 32.70901 -116.79608 5938 ft 201 kts 265°
2026-04-26 21:00 32.70768 -116.81236 5944 ft 195 kts 264°
2026-04-26 21:00 32.70457 -116.82784 5857 ft 199 kts 252°
2026-04-26 21:00 32.69967 -116.84316 5650 ft 195 kts 251°
2026-04-26 21:01 32.69490 -116.85819 5375 ft 194 kts 252°
2026-04-26 21:01 32.69024 -116.87327 5056 ft 196 kts 252°
2026-04-26 21:01 32.68562 -116.88832 4855 ft 193 kts 253°
2026-04-26 21:01 32.68120 -116.90343 4568 ft 193 kts 252°
2026-04-26 21:02 32.67678 -116.91845 4304 ft 192 kts 252°
2026-04-26 21:02 32.67306 -116.93323 4133 ft 183 kts 262°
2026-04-26 21:02 32.67405 -116.94792 3892 ft 177 kts 285°
2026-04-26 21:02 32.67769 -116.96181 3652 ft 175 kts 287°
2026-04-26 21:03 32.68132 -116.97576 3537 ft 177 kts 287°
2026-04-26 21:03 32.68484 -116.98973 3358 ft 176 kts 285°
2026-04-26 21:03 32.68817 -117.00355 3164 ft 171 kts 284°
2026-04-26 21:03 32.69132 -117.01707 3107 ft 172 kts 283°
2026-04-26 21:04 32.69466 -117.03079 2828 ft 174 kts 285°
2026-04-26 21:04 32.69816 -117.04458 2599 ft 174 kts 285°
2026-04-26 21:04 32.70156 -117.05840 2315 ft 178 kts 284°
2026-04-26 21:04 32.70502 -117.07264 2041 ft 177 kts 284°
2026-04-26 21:05 32.70829 -117.08622 2067 ft 168 kts 284°
2026-04-26 21:05 32.71137 -117.09889 1789 ft 154 kts 284°
2026-04-26 21:05 32.71432 -117.11081 1501 ft 146 kts 286°
2026-04-26 21:05 32.71707 -117.12192 1231 ft 130 kts 287°
2026-04-26 21:06 32.71942 -117.13166 1026 ft 122 kts 288°
2026-04-26 21:06 32.72175 -117.14130 851 ft 122 kts 290°
2026-04-26 21:06 32.72416 -117.15123 666 ft 128 kts 289°
2026-04-26 21:06 32.72662 -117.16164 458 ft 131 kts 289°
2026-04-26 21:07 32.72924 -117.17192 242 ft 129 kts 290°
2026-04-26 21:07 32.73173 -117.18213 61 ft 129 kts 288°
2026-04-26 21:07 32.73411 -117.19192 55 ft 117 kts 288°
2026-04-26 21:07 32.73699 -117.20345 817 ft 168 kts 288°
2026-04-26 21:08 32.74032 -117.21701 1504 ft 182 kts 286°
2026-04-26 21:08 32.74389 -117.23191 2324 ft 190 kts 286°
2026-04-26 21:08 32.74881 -117.24654 2750 ft 194 kts 302°
2026-04-26 21:08 32.75928 -117.25629 3023 ft 199 kts 335°
2026-04-26 21:09 32.77312 -117.25774 3335 ft 205 kts
2026-04-26 21:09 32.78712 -117.25381 3649 ft 208 kts 11°
2026-04-26 21:09 32.80117 -117.24948 3908 ft 208 kts 11°
2026-04-26 21:09 32.81522 -117.24516 4159 ft 209 kts 11°
2026-04-26 21:10 32.82928 -117.24074 4445 ft 210 kts 13°
2026-04-26 21:10 32.84209 -117.23226 4729 ft 218 kts 42°
2026-04-26 21:10 32.84983 -117.21670 4984 ft 226 kts 72°
2026-04-26 21:10 32.85056 -117.19799 5039 ft 229 kts 97°
2026-04-26 21:11 32.84781 -117.17930 5018 ft 229 kts 101°
2026-04-26 21:11 32.84480 -117.16065 5000 ft 230 kts 101°
2026-04-26 21:11 32.84176 -117.14175 4993 ft 234 kts 101°
2026-04-26 21:11 32.83868 -117.12280 4986 ft 231 kts 101°
2026-04-26 21:12 32.83567 -117.10396 4979 ft 231 kts 101°
2026-04-26 21:12 32.83241 -117.08548 4973 ft 230 kts 109°
2026-04-26 21:12 32.82545 -117.06830 4978 ft 232 kts 120°
2026-04-26 21:12 32.81730 -117.05109 4981 ft 232 kts 121°
2026-04-26 21:13 32.80936 -117.03455 4955 ft 229 kts 121°
2026-04-26 21:13 32.80143 -117.01813 4763 ft 231 kts 121°
2026-04-26 21:13 32.79347 -117.00154 4524 ft 230 kts 121°
2026-04-26 21:13 32.78559 -116.98493 4273 ft 232 kts 121°
2026-04-26 21:14 32.77775 -116.96819 4017 ft 231 kts 121°
2026-04-26 21:14 32.76996 -116.95145 3791 ft 230 kts 121°
2026-04-26 21:14 32.76238 -116.93519 3743 ft 226 kts 121°
2026-04-26 21:14 32.75467 -116.91861 3752 ft 225 kts 121°
2026-04-26 21:15 32.74718 -116.90255 3768 ft 225 kts 121°
2026-04-26 21:15 32.73696 -116.88866 3763 ft 223 kts 151°
2026-04-26 21:15 32.72283 -116.88290 3775 ft 213 kts 181°
2026-04-26 21:15 32.70848 -116.88550 3779 ft 206 kts 205°
2026-04-26 21:16 32.69717 -116.89515 3767 ft 198 kts 236°
2026-04-26 21:16 32.69126 -116.90914 3775 ft 189 kts 250°
2026-04-26 21:16 32.68654 -116.92363 3757 ft 187 kts 251°
2026-04-26 21:16 32.68206 -116.93759 3757 ft 178 kts 251°
2026-04-26 21:17 32.67825 -116.95148 3762 ft 176 kts 265°
2026-04-26 21:17 32.67913 -116.96587 3678 ft 172 kts 282°
2026-04-26 21:17 32.68255 -116.97932 3512 ft 174 kts 287°
2026-04-26 21:17 32.68604 -116.99338 3456 ft 175 kts 286°
2026-04-26 21:18 32.68931 -117.00680 3299 ft 170 kts 285°
2026-04-26 21:18 32.69266 -117.02061 3066 ft 175 kts 284°
2026-04-26 21:18 32.69597 -117.03426 2812 ft 172 kts 284°
2026-04-26 21:18 32.69921 -117.04767 2549 ft 167 kts 283°
2026-04-26 21:19 32.70236 -117.06070 2285 ft 162 kts 284°
2026-04-26 21:19 32.70543 -117.07339 2032 ft 158 kts 284°
2026-04-26 21:19 32.70836 -117.08550 1889 ft 149 kts 284°
2026-04-26 21:19 32.71118 -117.09714 1784 ft 139 kts 283°
2026-04-26 21:20 32.71286 -117.10409 1708 ft 119 kts 282°
2026-04-26 21:20 32.71502 -117.11304 1574 ft 112 kts 285°
2026-04-26 21:20 32.71708 -117.12199 1324 ft 113 kts 286°
2026-04-26 21:20 32.71920 -117.13096 1094 ft 113 kts 287°
2026-04-26 21:21 32.72129 -117.13988 880 ft 110 kts 289°
2026-04-26 21:21 32.72348 -117.14856 683 ft 109 kts 292°
2026-04-26 21:21 32.72568 -117.15731 528 ft 112 kts 292°
2026-04-26 21:21 32.72790 -117.16629 337 ft 115 kts 290°
2026-04-26 21:22 32.73009 -117.17523 171 ft 113 kts 289°
2026-04-26 21:22 32.73223 -117.18423 41 ft 111 kts 288°
2026-04-26 21:22 32.73410 -117.19184 26 ft 63 kts 286°
2026-04-26 21:23 32.73537 -117.19724 32 ft 11 kts 278°
2026-04-26 21:23 32.73515 -117.19813 31 ft 6 kts 250°
2026-04-26 21:23 32.73479 -117.19839 30 ft 6 kts 162°
2026-04-26 21:23 32.73455 -117.19792 29 ft 8 kts 105°
2026-04-26 21:24 32.73450 -117.19771 29 ft 2 kts 108°
2026-04-26 21:24 32.73443 -117.19741 29 ft 5 kts 108°
2026-04-26 21:24 32.73431 -117.19691 28 ft 4 kts 107°
2026-04-26 21:24 32.73428 -117.19681 28 ft 3 kts 106°
2026-04-26 21:25 32.73421 -117.19646 28 ft 6 kts 107°
2026-04-26 21:25 32.73405 -117.19585 29 ft 8 kts 107°
2026-04-26 21:25 32.73394 -117.19539 29 ft 8 kts 107°
2026-04-26 21:25 32.73382 -117.19491 29 ft 7 kts 107°
2026-04-26 21:26 32.73372 -117.19449 29 ft 1 kts 106°
2026-04-26 21:26 32.73372 -117.19448 29 ft 0 kts 105°
2026-04-26 21:26 32.73370 -117.19441 29 ft 2 kts 106°
2026-04-26 21:26 32.73364 -117.19414 28 ft 5 kts 104°
2026-04-26 21:27 32.73354 -117.19366 27 ft 7 kts 105°
2026-04-26 21:27 32.73334 -117.19300 27 ft 10 kts 132°
2026-04-26 21:27 32.73282 -117.19285 28 ft 5 kts 179°
2026-04-26 21:27 32.73269 -117.19287 28 ft 1 kts 201°
2026-04-26 21:28 32.73250 -117.19294 27 ft 4 kts 197°
2026-04-26 21:28 32.73247 -117.19295 27 ft 0 kts 197°